TimeCDT,TemperatureF,Dew PointF,Humidity,Sea Level PressureIn,VisibilityMPH,Wind Direction,Wind SpeedMPH,Gust SpeedMPH,PrecipitationIn,Events,Conditions,WindDirDegrees,DateUTC
12:53 AM,79.0,57.0,47,29.97,10.0,Calm,Calm,-,N/A,,Clear,0,2013-06-28 05:53:00
1:53 AM,80.1,60.1,50,29.96,10.0,South,5.8,-,N/A,,Clear,180,2013-06-28 06:53:00
2:53 AM,79.0,64.0,60,29.96,10.0,South,3.5,-,N/A,,Clear,170,2013-06-28 07:53:00
3:53 AM,78.1,66.0,66,29.94,10.0,SSE,4.6,-,N/A,,Clear,160,2013-06-28 08:53:00
4:53 AM,75.9,66.0,71,29.94,10.0,Calm,Calm,-,N/A,,Clear,0,2013-06-28 09:53:00
5:53 AM,73.9,66.0,76,29.95,10.0,Calm,Calm,-,N/A,,Clear,0,2013-06-28 10:53:00
6:53 AM,73.0,64.9,76,29.97,9.0,Calm,Calm,-,N/A,,Clear,0,2013-06-28 11:53:00
7:53 AM,75.9,66.9,74,29.99,9.0,SW,4.6,-,N/A,,Clear,230,2013-06-28 12:53:00
8:53 AM,80.1,66.9,64,29.97,10.0,SSW,10.4,-,N/A,,Clear,200,2013-06-28 13:53:00
9:53 AM,84.0,66.0,55,29.98,10.0,WSW,8.1,-,N/A,,Clear,250,2013-06-28 14:53:00
10:53 AM,88.0,64.9,46,29.98,10.0,West,5.8,-,N/A,,Clear,270,2013-06-28 15:53:00
11:53 AM,91.9,64.0,39,29.96,10.0,Variable,6.9,-,N/A,,Clear,0,2013-06-28 16:53:00
12:53 PM,97.0,60.1,29,29.94,10.0,NNW,4.6,-,N/A,,Clear,330,2013-06-28 17:53:00
1:53 PM,100.0,60.1,27,29.91,10.0,North,-9999.0,-,N/A,,Clear,0,2013-06-28 18:53:00
2:53 PM,102.0,59.0,24,29.87,10.0,NE,5.8,16.1,N/A,,Clear,50,2013-06-28 19:53:00
3:53 PM,105.1,57.0,20,29.85,10.0,North,8.1,16.1,N/A,,Clear,10,2013-06-28 20:53:00
4:53 PM,102.9,57.0,22,29.83,10.0,North,8.1,-,N/A,,Clear,360,2013-06-28 21:53:00
5:53 PM,102.9,55.9,21,29.82,10.0,North,6.9,-,N/A,,Clear,360,2013-06-28 22:53:00
6:53 PM,100.9,55.9,22,29.81,10.0,NE,5.8,-,N/A,,Clear,40,2013-06-28 23:53:00
7:53 PM,99.0,57.9,25,29.81,10.0,Calm,Calm,-,N/A,,Clear,0,2013-06-29 00:53:00
8:53 PM,93.0,61.0,34,29.81,10.0,Calm,Calm,-,N/A,,Clear,0,2013-06-29 01:53:00
9:53 PM,89.1,62.1,40,29.82,10.0,NNE,3.5,-,N/A,,Clear,30,2013-06-29 02:53:00
10:53 PM,87.1,62.1,43,29.83,10.0,NNE,4.6,-,N/A,,Clear,30,2013-06-29 03:53:00
11:53 PM,87.1,62.1,43,29.84,10.0,NNE,3.5,-,N/A,,Clear,30,2013-06-29 04:53:00